Location: Unspecified
(29.9680°N, 0.0000°E)
Time: 23:12:32
(UTC+00:00)

A-11 Canister half - Pass Details

Date: 22 June 2019
Orbit: 1527 x 1682 km, 47.3° (Epoch: 13 October)

Event Time Altitude Azimuth Distance (km) Brightness Sun altitude
Rises 06:53:18 0° 287° (WNW) 4,713 11.1 22.0°
Reaches altitude 10° 06:57:05 10° 300° (WNW) 3,714 10.7 22.8°
Maximum altitude 07:04:40 27° 355° (N) 2,616 10.5 24.4°
Drops below altitude 10° 07:12:14 10° 50° (NE) 3,698 12.2 26.0°
Sets 07:16:00 0° 62° (ENE) 4,690 12.7 26.8°
